{"data":{"norad_id":54151,"intl_designator":"2022-139B","name":"GONETS-M 24","alt_names":[],"object_type":"PAYLOAD","status":"ACTIVE","operator":null,"country":"CIS","launch_date":"2022-10-22","launch_site_code":"VOSTO","launch_vehicle":null,"mission":null,"orbit_class":"UNKNOWN","rcs_meters":null,"size_class":null,"mass_kg":null,"dimensions":null,"purposes":[],"wikipedia_slug":null,"has_3d_model":false,"image_url":null,"decayed_at":null,"tle_current":{"epoch":"2026-09-20T22:42:56.145024Z","epoch_age_seconds":120200,"freshness":"FRESH","line1":"1 54151U 22139B   26263.94648316  .00000046  00000+0  26310-3 0  9997","line2":"2 54151  82.4942 287.7851 0017058  27.5678 332.6303 12.42894241177542","mean_motion":12.42894241,"eccentricity":0.0017058,"inclination_deg":82.4942,"raan_deg":287.7851,"arg_perigee_deg":27.5678,"mean_anomaly_deg":332.6303,"bstar":0.0002631,"rev_number":17754,"period_min":115.85861069252,"perigee_km":1480.9290505563,"apogee_km":1507.786854336,"semimajor_km":7872.4949524462,"source":"CELESTRAK","updated_at":"2026-09-21T09:00:09.409304Z"}}}